Location: New Frontier Mobile Home Park
(32.8448°N, 116.9675°W)
Time: 22:39:38
(UTC+00:00)

IRS-P3 Rocket - Pass Details

Date: 14 July 2020
Orbit: 794 x 843 km, 98.8° (Epoch: 05 August)

Event Time Altitude Azimuth Distance (km) Brightness Sun altitude
Rises 10:08:20 0° 12° (NNE) 3,309 8.8 -26.8°
Reaches altitude 10° 10:10:40 10° 12° (NNE) 2,380 7.9 -26.5°
Maximum altitude 10:15:56 87° 286° (WNW) 813 4.5 -25.9°
Enters shadow 10:16:19 77° 209° (SSW) 830 4.4 -25.8°
